Wetbulb
46.27 41.84 39.17 42.72 44.82 44.75 43.59 41.75 40.98 44.09 46.99 45.64 45.30 44.76 46.80 48.76 49.00 48.70 49.61 49.60 49.86 50.88 55.06 57.24 58.01 58.65 58.54 59.11 58.47 58.32 58.91 60.29 59.80 59.65 59.34 59.93 59.15 61.28 65.96 68.52 69.44 69.88 69.76 69.78
42.66 39.91 44.94 46.37 45.46 43.79 43.11 41.07 40.92 43.98 45.89 44.93 44.01 43.07 46.02 47.21 47.44 48.28 48.95 49.74 49.73 50.99 54.16 55.30 55.77 56.21 56.16 56.11 56.12 56.12 56.10 56.71 56.98 57.32 57.45 58.44 58.97 60.22 61.34 61.51 64.32 68.69 69.58 69.55
40.93 43.50 46.60 44.52 42.76 41.12 41.36 39.91 40.69 40.25 42.90 44.59 42.94 40.77 43.22 46.29 48.39 49.08 50.05 50.69 51.89 52.24 52.98 53.23 53.40 54.10 54.96 54.97 54.53 53.93 54.28 54.43 55.11 55.99 55.67 56.51 57.91 59.04 60.17 60.27 61.09 66.27 67.51 69.75
42.68 45.60 43.35 43.21 41.87 42.92 37.90 43.75 42.63 41.21 39.26 34.71 42.74 32.76 41.08 44.17 45.43 47.25 48.30 51.25 51.44 51.26 52.06 52.14 52.15 52.33 52.70 53.02 53.67 53.10 53.03 52.65 53.01 52.96 52.47 52.61 52.84 52.86 56.12 57.67 60.03 61.73 65.20 66.22
41.26 42.62 41.77 41.47 42.59 44.74 40.53 44.56 42.22 40.82 36.91 36.96 37.38 34.42 38.32 43.61 42.78 44.39 48.47 50.33 50.42 50.64 51.00 50.42 50.35 50.65 51.62 51.75 51.16 51.42 51.28 50.93 50.75 50.40 50.41 49.63 49.81 50.98 52.50 53.46 54.99 57.45 60.87 64.12
43.83 47.95 45.34 43.90 45.47 45.24 44.00 40.71 41.27 40.78 37.06 28.54 35.07 34.47 35.12 39.44 43.20 44.43 48.28 48.90 49.34 49.62 50.11 50.32 50.54 50.54 49.82 49.96 49.48 49.53 48.56 48.13 48.34 47.67 47.65 47.19 47.20 47.29 48.18 49.77 51.22 53.75 57.26 61.06
41.94 42.27 45.23 46.15 41.51 43.01 41.12 36.56 28.38 26.75 26.85 27.13 36.96 34.24 36.80 43.22 46.75 46.85 46.78 47.48 47.80 47.91 47.81 47.65 47.10 47.07 47.61 47.38 47.23 46.95 46.26 44.81 45.14 44.88 44.89 45.03 44.79 45.03 44.88 46.22 48.69 50.62 53.37 56.58
34.64 32.59 41.40 44.80 41.72 38.14 38.11 36.22 27.94 21.16 23.69 28.12 35.24 31.25 37.03 45.19 46.63 46.98 46.83 46.24 46.36 45.89 46.37 46.05 46.22 46.32 45.98 45.93 45.34 44.74 42.82 41.77 42.10 41.90 41.61 42.28 42.43 42.67 43.61 44.66 46.39 48.60 51.60 54.65
34.49 34.04 42.60 43.00 44.16 41.66 37.13 33.57 39.11 30.84 31.81 28.17 32.15 37.11 42.19 44.29 43.37 43.46 43.53 44.06 43.44 44.10 44.36 44.45 45.06 45.20 44.54 43.93 43.06 42.12 40.79 39.64 39.63 39.59 39.60 39.58 40.29 40.78 41.45 42.82 44.66 46.34 48.89 52.20
39.62 32.29 39.20 41.54 40.95 40.86 37.83 39.65 31.45 31.64 23.80 22.67 30.52 33.01 31.99 38.81 39.84 41.56 41.23 41.32 42.26 42.86 43.26 43.43 43.72 43.69 43.38 42.43 41.23 40.31 39.59 37.97 37.33 37.44 37.41 37.85 39.02 39.92 41.39 43.44 44.20 45.86 47.48 50.10
41.06 36.49 34.67 38.81 35.52 34.41 35.17 33.32 34.31 34.04 30.25 24.50 23.50 29.17 40.78 39.54 40.51 40.01 40.83 41.31 41.26 41.54 41.93 42.10 42.45 42.86 41.78 40.43 39.24 37.84 37.06 36.06 34.75 34.95 35.20 36.13 38.19 39.04 41.30 42.31 43.91 46.53 49.47 50.61
38.14 36.22 30.77 33.08 39.57 40.13 38.03 36.24 35.50 28.00 26.46 30.17 28.43 27.96 43.50 42.83 43.00 42.15 40.93 41.43 41.57 41.72 41.02 41.18 41.08 40.80 39.49 37.92 36.90 35.98 35.05 33.83 33.32 33.36 34.38 35.31 36.72 37.23 38.98 40.20 42.50 45.43 48.75 55.74
38.77 32.56 27.21 29.63 35.18 37.63 33.93 35.92 35.87 35.55 34.10 27.52 24.31 27.57 42.71 42.21 40.96 42.13 41.33 41.12 41.04 40.57 39.29 39.09 38.79 37.88 36.96 35.84 34.81 34.61 34.80 33.09 32.64 32.74 33.47 34.18 34.43 35.26 36.32 38.57 40.28 41.63 46.47 49.57
40.81 34.36 30.63 25.97 29.26 33.65 31.02 33.51 34.77 33.54 27.71 27.94 28.66 30.72 36.71 39.51 39.27 39.95 39.80 40.16 39.62 38.16 37.18 36.26 35.72 35.01 34.02 33.71 33.35 33.21 33.75 33.69 32.73 32.42 32.64 32.52 33.17 33.72 34.63 36.64 37.22 37.95 40.28 42.09
37.28 29.67 32.74 33.67 34.75 34.10 32.73 32.08 33.32 31.52 32.48 27.94 30.94 30.99 34.88 37.56 37.85 38.96 39.33 38.90 37.85 35.13 34.28 33.69 32.70 32.25 31.65 31.43 32.18 32.81 32.98 33.66 33.24 32.31 31.93 31.82 32.61 33.03 33.56 34.12 34.52 34.63 34.44 37.37
37.97 29.93 30.54 28.49 33.09 32.65 30.18 32.46 32.70 32.16 32.44 32.35 32.66 31.79 38.27 39.36 40.49 39.14 37.08 36.35 33.50 32.00 31.61 31.29 31.19 30.85 30.04 30.56 31.24 31.59 31.84 32.25 33.18 32.66 31.75 32.09 32.13 31.51 31.08 31.59 31.79 32.45 32.51 32.17
34.54 31.38 28.19 23.54 30.25 29.79 24.65 29.80 31.24 32.29 33.80 33.10 27.72 34.00 36.92 36.26 34.23 32.66 33.25 31.85 30.19 29.90 29.52 29.14 29.32 30.18 29.91 30.34 31.19 30.53 31.24 32.61 32.40 31.95 32.08 31.93 32.22 31.11 30.41 29.91 29.44 28.88 29.53 30.64
33.20 31.75 29.88 25.11 26.03 16.78 29.88 36.47 34.60 31.97 33.33 34.99 35.28 34.95 34.99 32.96 31.13 30.23 30.91 29.61 28.18 28.09 28.19 28.43 28.99 29.32 29.91 30.89 31.12 31.62 31.66 31.35 31.15 31.14 31.32 31.95 31.96 31.64 31.44 30.46 29.03 28.10 28.10 27.70
36.71 32.43 27.08 22.47 22.21 27.05 29.58 31.07 29.43 27.03 27.59 34.22 33.03 34.25 33.67 32.30 30.42 27.50 29.61 29.11 28.31 28.28 28.32 28.80 29.59 29.74 29.83 29.97 31.33 31.27 30.39 30.34 30.03 29.65 30.42 30.79 31.60 31.20 31.44 31.05 30.53 30.09 28.99 28.06
34.35 33.55 28.37 25.39 19.56 17.16 27.67 32.00 35.20 33.15 23.23 31.21 31.64 32.31 32.12 32.31 27.24 24.12 28.74 29.56 29.29 30.18 29.78 28.37 29.23 29.36 28.90 29.35 30.47 29.73 29.00 28.86 28.27 28.98 29.60 30.82 30.58 30.09 30.58 30.60 31.51 31.52 30.96 29.32
27.54 28.33 24.37 25.11 22.97 26.67 30.12 32.32 34.48 22.28 23.00 29.65 30.89 31.85 34.14 28.34 27.57 27.60 29.25 28.91 30.25 31.04 31.03 31.20 30.07 28.96 29.87 30.23 29.25 27.69 28.01 27.81 29.59 28.93 28.40 28.76 29.88 28.82 29.43 30.30 30.37 30.64 30.04 29.27
27.55 25.91 25.51 26.92 23.57 21.16 31.35 32.10 26.10 28.27 30.58 30.27 32.34 31.20 27.74 27.69 27.76 27.90 28.44 28.59 29.24 29.36 29.36 29.93 29.21 29.27 30.18 30.86 29.21 26.74 26.86 29.26 30.56 30.21 27.97 25.60 26.20 28.42 27.21 26.72 27.31 28.68 26.96 26.61
27.37 31.67 28.81 27.12 26.21 30.00 30.96 29.33 31.97 32.42 30.25 29.88 29.75 30.17 28.70 27.40 26.92 27.27 27.22 27.67 28.34 28.23 28.82 29.80 28.91 28.59 29.30 29.45 29.70 27.68 27.61 29.80 29.93 30.02 29.48 27.31 25.24 24.86 26.11 24.21 23.63 24.11 25.80 23.91
33.10 35.72 31.65 29.42 29.09 28.96 30.18 30.67 31.26 31.24 29.99 30.84 30.59 29.85 28.77 26.47 27.15 26.81 27.45 27.76 27.65 28.06 28.34 28.94 28.05 26.97 26.75 28.35 28.48 28.64 30.06 30.50 29.19 28.51 29.00 29.11 28.70 25.28 24.22 24.39 23.31 21.86 21.74 22.33
33.52 34.37 32.19 28.33 29.09 29.69 30.13 30.33 29.89 29.64 29.82 29.39 29.98 29.30 28.48 27.97 27.05 27.03 26.94 27.49 27.27 27.80 28.41 28.18 26.66 25.70 25.50 26.51 27.11 28.29 28.73 29.88 28.77 28.09 27.77 28.16 28.17 27.72 24.57 23.14 22.71 21.74 21.95 22.12
32.15 29.94 29.75 28.39 32.05 30.91 29.12 30.61 31.17 29.01 28.27 28.86 28.05 27.84 28.89 28.04 26.61 26.69 26.25 26.97 27.45 27.40 27.77 27.02 26.28 25.10 24.81 25.47 25.65 26.96 28.23 28.34 27.17 26.93 27.09 27.15 27.43 27.31 27.15 26.73 23.62 25.62 25.20 25.00
MSLP
1008.38 1008.39 1007.32 1007.04 1006.70 1005.95 1005.13 1004.42 1003.19 1002.12 1001.60 1000.98 1000.06 999.65 999.56 999.86 999.95 999.97 1000.03 1000.42 1000.99 1001.54 1002.71 1004.09 1005.33 1006.25 1006.88 1007.40 1008.07 1008.42 1008.39 1008.24 1008.26 1007.99 1007.67 1007.17 1006.63 1006.15 1005.54 1005.31 1005.32 1005.28 1005.50 1005.84
1007.75 1006.19 1006.50 1006.52 1006.19 1005.70 1004.82 1003.88 1002.91 1002.52 1002.01 1001.68 1000.83 999.85 999.46 999.59 999.51 999.52 999.46 999.53 1000.33 1001.14 1002.71 1004.51 1005.69 1006.58 1007.51 1008.31 1008.90 1008.96 1008.79 1008.74 1008.70 1008.53 1008.46 1007.99 1007.43 1006.68 1006.36 1006.02 1005.51 1004.71 1004.85 1004.99
1006.44 1005.26 1005.27 1005.08 1004.88 1004.80 1004.22 1003.93 1003.49 1002.87 1002.48 1002.03 1001.23 1000.04 999.51 999.50 999.03 998.65 998.68 999.15 999.98 1001.26 1003.20 1004.97 1006.32 1007.07 1008.09 1008.80 1009.23 1009.37 1009.37 1009.37 1009.21 1008.97 1008.74 1008.20 1007.66 1006.97 1006.14 1005.60 1005.08 1004.43 1004.28 1004.37
1005.45 1005.35 1005.07 1004.47 1003.95 1003.99 1003.50 1003.93 1003.77 1003.47 1003.11 1002.69 1002.52 1000.09 999.71 998.72 997.19 996.77 998.28 999.70 1001.35 1003.10 1004.57 1005.94 1006.76 1008.03 1008.90 1009.11 1009.51 1009.71 1009.87 1009.88 1009.57 1009.71 1009.55 1009.16 1008.74 1008.07 1007.29 1006.58 1005.81 1005.06 1004.29 1003.74
1004.27 1004.90 1004.70 1004.14 1004.07 1004.15 1003.70 1004.21 1004.83 1004.94 1005.16 1004.95 1003.62 1002.00 1000.41 999.37 997.63 997.73 999.01 1000.80 1002.86 1004.26 1005.53 1006.75 1008.02 1008.96 1009.15 1009.55 1009.98 1010.20 1010.24 1010.19 1010.34 1010.35 1010.27 1009.98 1009.43 1008.97 1008.26 1007.69 1006.68 1005.65 1004.75 1003.91
1004.28 1004.28 1004.34 1004.51 1004.71 1004.70 1004.68 1004.73 1004.98 1005.66 1005.91 1005.52 1003.63 1003.29 1001.66 1000.00 998.63 998.34 1000.17 1002.50 1003.99 1005.05 1006.18 1007.64 1008.71 1009.35 1009.60 1010.10 1010.60 1010.78 1010.93 1010.99 1010.95 1010.96 1010.79 1010.57 1010.08 1009.48 1008.85 1008.23 1007.38 1006.24 1004.97 1003.83
1003.68 1003.50 1003.51 1004.19 1004.86 1005.08 1005.45 1005.98 1006.20 1006.77 1006.38 1004.92 1004.60 1003.74 1002.01 1002.70 1000.83 1001.13 1002.87 1004.35 1005.51 1006.19 1007.52 1008.42 1009.00 1009.47 1009.98 1010.52 1010.90 1011.13 1011.44 1011.69 1011.75 1011.53 1011.17 1010.80 1010.43 1009.92 1009.26 1008.63 1007.68 1006.70 1005.43 1004.14
1003.75 1003.64 1003.44 1003.88 1004.61 1005.23 1005.66 1006.53 1007.67 1007.21 1006.83 1005.95 1006.25 1004.48 1003.37 1004.33 1004.46 1004.41 1004.61 1006.00 1006.78 1007.26 1008.52 1008.97 1009.43 1009.90 1010.48 1010.92 1011.32 1011.64 1011.99 1012.17 1012.11 1011.89 1011.64 1011.23 1010.74 1010.11 1009.28 1008.50 1007.70 1006.60 1005.41 1004.12
1004.35 1004.40 1004.70 1004.94 1004.71 1005.67 1005.98 1006.43 1007.40 1008.20 1008.26 1007.47 1006.18 1005.26 1005.16 1004.85 1005.78 1006.40 1006.53 1007.37 1007.85 1008.61 1009.25 1009.62 1009.90 1010.44 1011.14 1011.64 1012.16 1012.53 1012.68 1012.77 1012.76 1012.40 1011.83 1011.23 1010.57 1009.82 1008.95 1008.12 1007.26 1006.16 1005.16 1003.90
1004.48 1005.21 1006.07 1005.83 1006.17 1005.97 1006.15 1006.64 1007.33 1008.86 1008.48 1006.93 1005.36 1004.63 1005.92 1006.29 1006.73 1007.49 1007.95 1008.50 1008.93 1009.20 1009.69 1010.16 1010.54 1011.26 1011.94 1012.59 1013.11 1013.46 1013.66 1013.59 1013.40 1012.85 1012.15 1011.25 1010.36 1009.45 1008.30 1007.14 1006.02 1005.05 1004.05 1003.25
1005.29 1006.75 1007.33 1007.16 1006.66 1006.17 1006.60 1006.77 1007.28 1007.87 1008.44 1007.85 1006.38 1005.77 1006.45 1007.01 1007.62 1008.18 1008.36 1008.83 1009.19 1009.44 1010.13 1010.91 1011.45 1012.06 1012.71 1013.32 1013.69 1014.05 1014.10 1013.99 1013.71 1013.07 1012.26 1011.27 1009.97 1008.78 1007.52 1006.39 1005.10 1003.80 1002.51 1001.49
1007.45 1007.80 1007.58 1007.13 1006.58 1006.54 1006.20 1006.11 1006.95 1007.46 1007.93 1007.99 1007.53 1006.77 1006.54 1007.19 1007.61 1008.12 1008.56 1009.03 1009.76 1010.66 1011.61 1012.16 1012.54 1013.07 1013.62 1014.17 1014.49 1014.58 1014.44 1014.29 1013.79 1013.04 1012.12 1010.95 1009.66 1008.30 1006.97 1005.53 1004.13 1002.93 1001.10 998.53
1008.10 1008.79 1008.28 1007.46 1007.56 1006.74 1006.56 1006.66 1007.00 1007.61 1008.03 1008.00 1007.84 1007.17 1007.02 1007.40 1007.93 1008.43 1008.70 1009.62 1010.73 1011.68 1012.88 1013.49 1013.92 1014.52 1015.11 1015.35 1015.37 1015.01 1014.61 1014.45 1013.72 1012.98 1011.88 1010.67 1009.37 1007.97 1006.76 1005.23 1004.09 1002.74 1000.94 999.02
1008.54 1008.57 1008.58 1008.16 1007.73 1007.36 1006.93 1006.81 1006.87 1007.34 1007.79 1007.62 1007.50 1007.26 1007.10 1007.89 1008.11 1008.27 1009.50 1010.67 1011.79 1013.11 1014.14 1014.97 1015.52 1015.98 1016.35 1016.37 1016.00 1015.58 1015.36 1014.93 1014.11 1013.16 1012.01 1010.84 1009.56 1008.59 1006.99 1005.69 1004.77 1002.93 1001.74 999.60
1008.82 1008.73 1008.70 1008.29 1007.64 1007.37 1006.89 1006.85 1006.79 1006.93 1007.05 1007.42 1007.54 1007.58 1007.45 1007.69 1008.65 1009.65 1010.84 1012.04 1013.12 1014.61 1015.65 1016.50 1017.01 1017.37 1017.35 1017.07 1016.72 1016.51 1016.27 1015.42 1014.61 1013.52 1012.32 1011.26 1009.97 1008.85 1007.38 1006.49 1005.18 1003.97 1002.63 1001.39
1008.86 1009.14 1009.34 1008.96 1008.35 1007.85 1007.28 1007.03 1007.03 1007.24 1007.28 1007.32 1007.52 1007.54 1007.95 1008.37 1009.56 1011.01 1012.53 1013.67 1015.12 1016.46 1017.48 1018.04 1018.34 1018.27 1018.14 1018.01 1017.81 1017.40 1016.84 1015.94 1015.04 1013.99 1013.00 1011.67 1010.38 1009.49 1008.64 1007.49 1006.12 1005.00 1003.68 1002.55
1008.77 1009.32 1009.67 1009.27 1008.85 1008.36 1007.91 1007.52 1007.55 1007.61 1007.60 1007.86 1008.10 1008.61 1009.72 1010.76 1012.68 1013.92 1014.99 1016.15 1017.25 1018.22 1018.82 1019.16 1019.37 1019.45 1019.37 1018.94 1018.51 1018.00 1017.42 1016.60 1015.70 1014.66 1013.44 1012.34 1011.49 1010.69 1009.75 1008.92 1007.53 1006.58 1005.73 1004.45
1008.68 1009.33 1009.88 1009.76 1010.01 1009.35 1008.37 1008.55 1009.11 1009.47 1009.46 1009.55 1009.74 1010.43 1011.74 1013.48 1015.30 1016.24 1017.46 1018.16 1019.00 1019.62 1019.89 1020.30 1020.37 1020.27 1019.88 1019.50 1019.11 1018.73 1018.00 1017.18 1016.28 1015.21 1014.14 1013.32 1012.55 1011.73 1010.88 1009.99 1009.27 1008.48 1007.48 1006.81
1008.85 1009.42 1009.88 1010.27 1010.10 1009.73 1009.65 1010.87 1011.33 1011.54 1011.37 1011.51 1012.02 1012.36 1013.42 1014.98 1016.45 1018.09 1019.11 1019.64 1020.19 1020.57 1020.97 1021.12 1021.13 1020.73 1020.41 1020.04 1019.78 1019.24 1018.44 1017.74 1016.88 1016.05 1015.27 1014.42 1013.60 1012.71 1011.99 1011.26 1010.66 1010.18 1009.51 1009.06
1009.11 1009.97 1010.54 1010.65 1011.01 1010.89 1011.77 1012.34 1012.51 1012.93 1013.30 1013.70 1013.96 1014.17 1014.80 1015.79 1017.10 1019.18 1020.09 1020.44 1020.82 1021.03 1021.39 1021.57 1021.38 1021.20 1020.81 1020.81 1020.38 1019.72 1019.02 1018.31 1017.81 1017.33 1016.62 1015.78 1014.95 1014.19 1013.52 1012.91 1012.26 1011.95 1011.30 1011.03
1009.61 1010.04 1010.56 1011.03 1011.72 1012.29 1013.32 1013.78 1013.90 1014.64 1015.60 1015.39 1015.48 1015.47 1016.01 1017.10 1018.61 1019.95 1020.69 1021.01 1021.19 1021.33 1021.40 1021.50 1021.40 1021.20 1021.33 1021.07 1020.68 1020.14 1019.57 1019.11 1018.93 1018.42 1017.79 1016.99 1016.26 1015.77 1015.19 1014.54 1014.03 1013.56 1013.14 1012.80
1009.72 1010.28 1010.70 1011.54 1012.51 1013.47 1014.45 1014.49 1015.17 1016.01 1016.19 1016.52 1016.49 1016.76 1017.38 1018.73 1019.80 1020.54 1021.07 1021.42 1021.57 1021.59 1021.53 1021.22 1021.27 1021.50 1021.40 1021.05 1020.65 1020.32 1019.92 1019.75 1019.23 1018.77 1018.54 1018.28 1017.88 1017.20 1016.77 1016.19 1015.78 1015.17 1014.96 1014.52
1010.57 1010.87 1011.25 1012.75 1013.65 1014.83 1015.54 1016.00 1016.53 1016.68 1017.01 1017.64 1017.88 1018.35 1018.75 1019.49 1020.41 1021.18 1021.64 1021.89 1022.00 1021.97 1021.48 1021.30 1021.44 1021.54 1021.58 1021.36 1020.97 1020.59 1020.31 1019.91 1019.56 1019.19 1018.96 1019.04 1018.86 1018.59 1018.13 1017.82 1017.50 1016.91 1016.63 1016.43
1010.79 1011.17 1011.57 1013.17 1014.57 1015.27 1016.09 1016.78 1017.28 1017.60 1018.15 1018.57 1018.98 1019.41 1019.85 1020.37 1021.15 1021.68 1022.07 1022.28 1022.34 1022.01 1021.61 1021.63 1021.78 1022.02 1022.11 1022.08 1021.85 1021.35 1020.73 1020.37 1020.27 1019.98 1019.68 1019.42 1019.33 1019.69 1019.46 1019.16 1019.17 1018.96 1018.72 1018.46
1011.23 1011.41 1011.99 1013.81 1014.97 1015.79 1016.57 1017.31 1017.98 1018.56 1019.04 1019.47 1019.93 1020.32 1020.71 1021.12 1021.70 1022.12 1022.44 1022.56 1022.48 1022.08 1021.98 1022.21 1022.63 1022.92 1023.09 1023.11 1022.80 1022.38 1021.96 1021.40 1021.06 1020.93 1020.68 1020.42 1020.25 1020.15 1020.56 1020.69 1020.54 1020.46 1020.52 1020.31
1012.82 1013.20 1013.05 1013.91 1014.69 1015.61 1016.90 1017.83 1018.51 1019.09 1019.67 1020.16 1020.56 1021.03 1021.46 1021.79 1022.23 1022.64 1022.84 1022.94 1022.68 1022.63 1022.70 1022.93 1023.24 1023.62 1023.82 1023.80 1023.57 1023.39 1023.05 1022.67 1022.26 1021.96 1021.74 1021.55 1021.28 1021.11 1021.03 1021.04 1021.48 1021.45 1021.26 1021.16
Wind_Speed
16 13 16 18 21 24 21 26 28 26 26 27 22 20 17 15 17 15 15 16 14 12 13 14 10 9 7 7 8 8 6 6 5 5 6 6 4 6 5 8 9 9 9 14
17 22 21 22 24 26 27 29 28 25 25 23 25 24 22 20 20 18 19 15 14 14 14 13 11 10 8 6 7 7 9 9 7 7 8 7 8 7 8 9 11 13 9 12
23 26 23 24 25 27 25 26 25 30 26 27 23 24 23 20 24 22 19 14 5 12 16 12 8 9 6 5 6 9 9 10 9 9 8 7 8 8 8 7 8 8 7 10
27 23 28 27 27 26 22 21 26 25 21 16 23 18 22 20 22 21 24 13 16 15 12 9 9 8 6 7 8 9 10 11 10 11 10 11 9 10 9 10 11 12 11 15
29 25 26 23 25 24 22 21 18 21 14 21 23 17 14 24 20 16 17 20 17 13 10 9 9 6 7 9 9 9 11 11 11 12 11 9 11 10 10 12 17 16 14 15
28 24 25 15 18 20 15 17 20 21 13 16 25 19 17 20 16 11 23 19 15 12 11 7 7 8 9 10 9 8 10 12 13 13 12 12 13 14 12 12 12 13 13 12
21 25 26 14 17 14 14 13 7 4 8 16 18 18 15 16 21 20 19 15 13 13 9 8 10 10 11 11 11 11 12 13 13 14 14 14 15 15 17 15 12 15 13 13
12 12 16 15 18 14 8 10 6 7 8 14 10 11 4 14 14 17 17 14 12 13 8 10 10 11 12 13 14 14 15 15 16 17 16 14 15 10 12 13 13 13 14 14
6 9 1 9 12 11 12 14 17 6 13 13 11 6 7 14 15 14 12 13 11 10 9 10 11 12 12 13 14 15 15 15 16 16 15 15 15 15 14 17 16 13 17 16
11 12 2 6 4 9 8 3 4 2 5 10 13 12 7 8 9 8 10 9 9 11 12 12 12 12 12 12 12 13 13 14 15 16 15 14 16 16 16 16 18 18 19 21
8 3 2 8 9 14 10 12 7 4 5 5 6 4 6 9 7 7 5 6 9 12 13 12 12 12 13 13 13 13 13 15 15 14 15 16 15 16 15 15 16 18 19 22
6 3 6 11 5 7 6 9 12 10 11 8 9 10 8 10 8 4 4 5 9 10 12 11 12 13 14 15 15 13 13 14 14 15 15 16 15 15 14 14 15 16 21 15
6 2 5 5 8 10 8 12 11 9 9 13 9 5 8 5 5 5 5 10 7 10 11 12 13 13 13 14 13 14 14 15 16 15 15 15 15 16 15 14 15 15 16 11
6 7 7 5 2 5 7 13 14 13 9 12 11 15 11 6 5 6 13 9 8 11 11 12 12 13 14 14 14 14 15 14 16 15 14 15 16 16 14 13 13 14 16 15
3 8 11 14 17 10 13 11 11 15 13 14 11 13 12 10 12 11 9 9 11 11 12 12 12 12 14 14 14 14 13 13 15 14 14 14 15 15 15 14 13 14 17 17
6 6 3 11 13 13 15 15 15 17 16 17 17 14 11 9 11 9 9 9 11 11 10 11 12 14 15 15 13 13 13 14 13 12 13 13 15 16 16 16 17 15 16 21
8 4 5 8 9 9 9 11 17 16 15 16 12 6 14 13 14 14 12 11 10 8 9 11 12 11 11 12 12 13 13 12 12 12 14 14 14 15 16 16 18 19 18 18
5 9 5 7 0 7 3 10 8 7 10 11 13 13 11 12 12 13 11 9 8 7 10 9 9 9 11 11 12 11 11 12 13 14 15 15 15 15 15 17 18 18 18 21
7 7 5 6 8 11 4 5 4 4 4 8 7 5 9 12 11 11 9 9 8 9 8 8 7 8 10 12 11 10 11 13 15 16 16 16 15 17 17 17 17 17 17 18
8 8 7 6 8 8 6 7 5 2 5 8 8 6 8 8 4 6 8 8 8 7 6 6 8 8 11 10 9 10 12 13 15 15 15 15 16 17 17 18 16 15 15 17
8 8 10 9 8 3 4 5 4 5 4 7 7 7 4 5 6 10 8 8 7 5 5 6 6 7 5 6 8 10 11 13 11 13 14 16 16 16 16 15 16 15 15 15
8 7 7 7 5 8 9 3 4 5 5 6 9 10 16 14 12 10 9 8 8 8 7 8 7 6 5 3 4 7 10 6 8 9 12 16 15 13 14 17 15 15 15 16
2 2 3 5 4 4 5 5 4 5 6 6 8 9 13 13 11 9 8 8 7 6 6 8 8 9 9 11 11 9 3 8 8 9 11 9 13 14 14 16 16 13 14 13
4 5 2 7 6 4 6 7 7 8 9 8 9 10 11 12 10 9 8 7 6 5 6 8 10 10 10 11 12 13 13 9 10 12 11 12 9 11 13 11 12 12 13 12
3 3 7 5 6 6 7 8 8 9 9 9 9 10 10 10 10 9 8 7 6 6 8 9 9 9 11 12 12 13 13 13 11 11 11 11 10 11 9 11 10 10 13 15
4 5 2 4 9 7 8 8 9 9 9 9 10 10 9 10 10 9 7 5 5 7 7 8 9 10 10 11 12 12 12 11 11 10 9 9 8 8 8 7 7 18 21 23
Wind_Direction
215 233 239 250 251 259 264 268 276 281 289 297 293 285 277 255 272 262 233 223 231 252 111 99 87 78 42 46 26 11 350 2 351 327 327 320 299 296 259 226 234 214 208 201
233 243 246 258 268 277 275 277 279 280 281 275 277 276 275 272 269 253 246 229 213 211 123 104 85 73 47 20 27 359 3 2 357 343 341 314 306 296 296 304 297 221 228 207
245 258 267 261 256 262 262 269 277 278 280 284 286 275 260 261 257 252 239 229 128 116 98 94 80 63 48 24 18 0 1 352 351 347 328 322 318 307 298 276 275 254 233 218
251 268 275 265 272 270 263 278 294 297 291 292 280 274 269 265 263 228 219 130 93 82 75 71 56 41 5 37 23 1 357 348 346 352 339 328 313 300 300 301 301 304 282 232
255 256 259 257 258 267 279 279 281 298 309 281 277 275 260 275 267 176 126 104 98 93 77 52 47 26 18 31 17 6 348 344 349 347 337 328 313 311 315 308 306 300 295 282
260 252 261 284 273 282 306 307 262 261 242 261 258 265 268 262 283 187 97 107 109 91 70 48 42 23 16 25 10 359 352 344 343 340 329 321 309 301 298 293 292 295 292 288
248 251 251 216 261 272 291 281 289 268 239 255 258 253 260 32 73 103 119 109 88 75 66 46 30 15 14 9 1 357 357 343 338 331 325 321 312 302 291 288 283 280 283 282
274 286 267 206 226 255 262 281 208 265 261 272 315 283 152 97 82 87 89 93 88 76 59 47 28 22 9 4 3 359 353 341 335 329 324 315 304 295 287 280 278 275 273 275
241 249 247 260 239 225 259 237 249 293 280 279 251 189 110 94 85 75 85 84 68 58 46 34 24 25 10 8 2 2 355 341 332 326 320 311 303 293 286 280 271 269 269 269
242 275 239 286 261 244 247 345 222 186 251 249 254 259 86 167 107 88 84 67 51 38 28 23 23 23 16 11 2 357 351 341 331 323 318 308 301 289 283 280 274 263 261 261
250 255 275 201 224 225 213 234 222 239 227 304 312 317 70 95 114 127 78 59 38 33 23 12 14 17 15 7 1 357 348 339 330 322 315 307 305 299 293 288 282 275 265 251
61 227 227 208 227 314 296 246 252 240 253 261 276 290 131 154 156 103 86 68 44 37 26 13 8 14 8 1 357 351 351 338 330 325 318 315 312 314 307 305 304 300 289 238
164 56 271 259 257 234 245 239 243 251 254 262 264 274 114 128 155 176 203 87 46 49 23 17 10 13 6 1 354 351 353 341 335 329 327 328 330 332 317 330 324 322 316 312
236 177 202 253 284 242 232 248 249 237 241 257 254 269 256 139 288 5 45 70 51 53 30 19 9 4 3 359 354 357 348 344 337 335 338 342 345 334 331 337 339 358 341 359
251 246 265 264 279 285 271 263 249 259 242 247 265 276 301 313 24 39 67 36 47 38 26 17 10 3 2 0 0 359 344 343 338 341 347 349 351 352 359 352 358 9 9 14
220 254 338 281 283 285 277 276 259 265 267 265 273 277 307 341 39 37 59 47 51 41 24 15 14 11 8 4 358 357 348 348 343 345 355 354 5 7 6 7 11 13 29 23
198 225 230 276 292 304 284 271 255 269 269 277 266 289 32 37 61 49 48 60 56 37 26 23 15 11 6 1 0 358 349 347 350 353 5 10 13 16 18 18 24 25 24 35
214 218 240 264 212 251 266 58 20 341 311 341 342 43 64 89 78 65 46 66 63 42 36 28 16 10 9 3 6 352 355 2 2 9 13 13 16 23 25 31 32 32 31 37
209 250 238 233 255 276 191 37 33 38 304 354 338 20 108 113 106 76 77 73 70 62 51 35 21 21 13 9 357 356 8 13 14 13 14 13 16 25 23 29 31 34 38 39
215 221 255 234 261 273 74 34 18 6 250 14 358 340 151 148 235 93 78 79 72 69 75 51 36 34 28 12 357 15 21 23 20 12 12 18 19 22 26 25 27 30 39 42
204 211 225 235 239 123 11 350 323 241 44 346 326 293 195 108 64 115 107 85 67 57 80 81 58 37 18 9 19 33 28 26 16 24 24 23 26 26 24 26 29 25 34 38
184 196 203 230 242 231 360 265 268 9 62 22 25 96 102 110 108 99 91 82 65 55 59 72 71 59 20 355 18 31 35 10 16 28 39 35 28 27 30 30 27 33 33 36
178 26 25 18 48 82 46 76 57 42 75 73 78 94 112 111 105 99 91 80 66 71 62 64 62 57 47 33 23 25 339 21 16 28 36 56 45 36 34 37 30 30 30 40
171 194 114 182 109 102 107 88 71 71 79 86 94 95 101 105 108 106 98 91 81 69 63 64 60 53 44 36 31 27 15 37 35 29 33 30 49 53 43 42 44 39 34 32
36 194 135 97 129 123 96 95 101 93 94 93 92 98 102 107 102 100 95 84 86 71 65 65 65 58 49 43 35 30 29 19 35 36 27 31 32 38 72 55 45 54 50 48
13 11 353 58 132 84 115 120 119 110 107 108 112 107 98 103 102 100 89 98 82 68 67 66 64 61 50 42 37 33 26 27 27 35 31 25 32 33 34 48 80 63 71 63